Location: Newark
(31.5350°N, 35.0986°E)
Time: 07:14:51
(UTC+00:00)

A-11 Canister half - Pass Details

Date: 24 October 2019
Orbit: 1514 x 1685 km, 47.2° (Epoch: 21 November)

Event Time Altitude Azimuth Distance (km) Brightness Sun altitude
Exits shadow 00:30:39 34° 3° (N) 2,438 10.0 -42.7°
Drops below altitude 10° 00:37:46 10° 49° (NE) 3,784 11.6 -41.2°
Sets 00:41:14 0° 59° (ENE) 4,744 12.4 -40.5°
